[[{"header":{"parameterUnit":"m.s-1","parameterCategory":1,"la1":30.2991,"la2":30.254,"lo1":-89.0895,"lo2":-89.0444,"dy":0.0017,"dx":0.0017,"nx":28,"ny":28,"refTime":"2024-03-23T09:00:00:Z","depth":0,"parameterNumber":2,"parameterNumberName":"U-component_of_WINDS"},"data":[0,0,0,0,0,0,0,0,0,0,0,0,0,0,0,0,0,0,0,0,0,0,0,0,0,0,0,0,0,0,0,0,0,0,0,0,0,0,0,0,0,0,0,0,0,0,0,0,0,0,0,0,0,0,0,0,0,0,-3.9693,-3.9693,0,-3.9738,-3.9739,-3.9739,-3.9703,-3.9702,-3.97,-3.9699,-3.9743,-3.9745,-3.9748,0,0,0,0,0,0,0,0,0,0,0,0,0,-3.9574,-3.9577,-3.9693,-3.9693,-3.9694,-3.9738,-3.9739,-3.9739,-3.9704,-3.9702,-3.97,-3.9698,-3.9742,-3.9745,-3.9748,0,0,0,0,0,0,0,0,0,0,0,0,0,-3.9623,-3.9578,-3.9693,-3.9681,-3.9681,-3.9738,-3.9739,-3.9739,-3.9704,-3.9702,-3.9699,-3.9697,-3.9741,-3.9745,-3.9749,-3.9818,0,0,-3.976,-3.9762,0,0,0,0,0,0,0,0,-3.9621,-3.9628,-3.9683,-3.9682,-3.9682,-3.9713,-3.9713,-3.9766,-3.9705,-3.9695,-3.9699,-3.9696,-3.9735,-3.9739,-3.9752,-3.982,-3.9822,-3.9761,-3.9763,-3.9765,-3.9766,0,0,0,0,0,0,0,-3.9617,-3.9626,-3.9711,-3.9683,-3.9683,-3.9674,-3.9678,-3.9723,-3.9727,-3.9696,-3.9693,-3.9699,-3.9734,-3.9749,-3.9753,-3.9823,-3.9761,-3.9764,-3.9767,-3.9768,-3.9951,-3.9954,0,0,0,0,0,0,-3.9615,-3.9623,-3.9709,-3.9712,-3.9645,-3.9678,-3.9683,-3.9705,-3.9726,-3.9728,-3.9701,-3.9698,-3.9743,-3.9749,-3.9754,-3.9837,-3.9765,-3.9768,-3.9771,-3.9949,-3.9952,-3.9955,0,0,0,0,0,0,-3.9613,-3.9623,-3.9707,-3.9667,-3.9677,-3.9682,-3.9708,-3.9707,-3.9722,-3.9731,-3.9731,-3.9715,-3.9741,-3.9749,-3.9803,-3.9838,-3.977,-3.9774,-3.9946,-3.995,-3.9953,-4.0003,0,0,0,0,0,0,-3.961,-3.9623,-3.9649,-3.9668,-3.9679,-3.9755,-3.971,-3.971,-3.9729,-3.9724,-3.9744,-3.9745,-3.974,-3.9797,-3.9807,-3.9842,-3.9777,-3.9942,-3.9947,-3.9952,-3.9998,-4.0008,-4.0016,0,0,0,0,0,-3.9605,-3.966,-3.965,-3.9661,-3.9712,-3.9757,-3.9764,-3.9758,-3.9732,-3.9758,-3.9765,-3.9744,-3.9834,-3.9803,-3.9814,-3.985,-3.994,-3.9946,-3.9952,-3.9994,-4.0006,-4.0016,0,0,0,0,0,0,-3.9644,-3.9663,-3.9652,-3.9714,-3.9735,-3.9751,-3.9784,-3.9771,-3.9798,-3.9792,-3.9784,-3.9788,-3.9845,-3.9854,-3.982,-3.992,-3.9883,-3.9891,-3.9911,-3.9923,-3.9932,-3.9927,-3.978,0,0,0,0,0,-3.966,-3.9696,-3.971,-3.9764,-3.9775,-3.9778,-3.9797,-3.9792,-3.9812,-3.982,-3.983,-3.985,-3.9882,-3.9903,-3.9934,-4.0001,-4.0004,-4.0031,-4.004,-4.0048,-4.0054,-4.009,-4.0102,-3.9973,-3.9973,-3.9973,0,0,-3.9693,-3.9708,-3.973,-3.9772,-3.9787,-3.9823,-3.9785,-3.9825,-3.9852,-3.9826,-3.9877,-3.9886,-3.9907,-3.9968,-3.9995,-3.9977,-4.0091,-4.0055,-4.0061,-4.0063,-4.0097,-4.0109,-4.012,-3.9977,-3.9976,-3.9976,0,0,-3.9771,-3.9786,-3.9833,-3.985,-3.9873,-3.9876,-3.9887,-3.9907,-3.9912,-3.9964,-3.9945,-3.9977,-4.0033,-4.005,-4.0065,-4.0154,-4.0136,-4.0164,-4.021,-4.0245,-4.0256,-4.0264,-4.0295,-4.0306,-4.0171,-4.0171,-4.0171,0,-3.9808,-3.9863,-3.9858,-3.99,-3.9919,-3.9899,-3.9946,-3.9963,-3.9995,-4.0008,-3.9988,-4.0059,-4.0073,-4.0137,-4.0159,-4.0173,-4.0185,-4.016,-4.0255,-4.0264,-4.0272,-4.03,-4.0312,-4.0174,-4.0174,-4.0173,-4.0173,0,-3.9907,-3.9946,-3.9981,-4.0014,-4.0037,-4.0081,-4.0084,-4.0108,-4.0101,-4.0106,-4.016,-4.0176,-4.0209,-4.0225,-4.0218,-4.0289,-4.0276,-4.0256,-4.0218,-4.0287,-4.0314,-4.0325,-4.0178,-4.0177,-4.0176,-4.0176,0,0,-4.0006,-4.0039,-4.0052,-4.0067,-4.0094,-4.0123,-4.0167,-4.0201,-4.0222,-4.0246,-4.0282,-4.0332,-4.0314,-4.0332,-4.0327,-4.0359,-4.0427,-4.0334,-4.0335,-4.0349,-4.0505,-4.0518,-4.0531,-4.0417,-4.0419,-4.0421,-4.0503,0,-4.0084,-4.0161,-4.016,-4.0231,-4.0267,-4.025,-4.0289,-4.0309,-4.0316,-4.0347,-4.0354,-4.0389,-4.0363,-4.0374,-4.0404,-4.0412,-4.0457,-4.0406,-4.0449,-4.0451,-4.0441,-4.0545,-4.0559,-4.0635,-4.0513,-4.0515,-4.0516,0,-4.0184,-4.0213,-4.0289,-4.0311,-4.0326,-4.0361,-4.0393,-4.0423,-4.0446,-4.0449,-4.0471,-4.0462,-4.0507,-4.0471,-4.0533,-4.0498,-4.0516,-4.0523,-4.0526,-4.0527,-4.0485,-4.0547,-4.066,-4.067,-4.0533,-4.0532,-4.053,0,-4.0248,-4.0306,-4.0358,-4.0372,-4.04,-4.0425,-4.0438,-4.0459,-4.0481,-4.0509,-4.0522,-4.0556,-4.0573,-4.0599,-4.0599,-4.0573,-4.0661,-4.0625,-4.0664,-4.0664,-4.068,-4.0678,-4.0795,-4.0696,-4.0696,-4.0696,-4.0696,0,-4.0333,-4.0379,-4.0387,-4.0419,-4.0471,-4.047,-4.0521,-4.0531,-4.0551,-4.0585,-4.0574,-4.0605,-4.0605,-4.0638,-4.0639,-4.069,-4.0698,-4.0701,-4.07,-4.07,-4.07,-4.0709,-4.0703,-4.0699,-4.0698,-4.0698,-4.0697,0,-4.0411,-4.0418,-4.0474,-4.0497,-4.0504,-4.0541,-4.0561,-4.0592,-4.0599,-4.0642,-4.0652,-4.0662,-4.07,-4.0704,-4.0748,-4.0749,-4.081,-4.0804,-4.0801,-4.08,-4.0837,-4.0833,-4.0962,-4.0978,-4.0871,-4.0872,-4.0873,0,-4.0463,-4.0499,-4.0527,-4.0549,-4.0564,-4.06,-4.0622,-4.0624,-4.0647,-4.0678,-4.0705,-4.0742,-4.0771,-4.0833,-4.0844,-4.0878,-4.0872,-4.0916,-4.0877,-4.0877,-4.0871,-4.0868,-4.0871,-4.0922,-4.0923,-4.0924,-4.0925,0,-4.0556,-4.0558,-4.0591,-4.0626,-4.0653,-4.068,-4.0705,-4.0724,-4.0729,-4.0756,-4.0796,-4.0819,-4.0865,-4.0902,-4.0936,-4.0949,-4.0937,-4.0937,-4.0948,-4.0947,-4.0943,-4.0944,-4.0819,-4.0933,-4.0932,-4.0932,-4.0931,-4.0931,-4.0621,-4.0652,-4.0677,-4.0714,-4.0734,-4.0759,-4.0789,-4.0801,-4.0834,-4.0872,-4.0871,-4.0915,-4.0939,-4.0984,-4.1,-4.1033,-4.1019,-4.1034,-4.1038,-4.1041,-4.1044,-4.094,-4.104,-4.1039,-4.1039,-4.1039,-4.1039,0,-4.0711,-4.0727,-4.0762,-4.0799,-4.0828,-4.0818,-4.0846,-4.0871,-4.0909,-4.0934,-4.0964,-4.101,-4.1046,-4.1062,-4.1098,-4.1122,-4.1117,-4.1131,-4.1128,-4.1131,-4.1055,-4.1042,-4.1134,-4.1134,-4.1134,-4.1134,-4.1134,-4.1134,-4.0761,-4.0813,-4.0819,-4.0881,-4.0897,-4.094,-4.0957,-4.098,-4.0999,-4.1051,-4.1082,-4.1092,-4.1113,-4.1151,-4.1184,-4.1188,-4.1201,-4.1216,-4.1217,-4.1146,-4.1136,-4.1127,-4.1114,-4.1219,-4.1219,-4.1289,-4.129,-4.1291]},{"header":{"parameterUnit":"m.s-1","parameterCategory":1,"la1":30.2991,"la2":30.254,"lo1":-89.0895,"lo2":-89.0444,"dy":0.0017,"dx":0.0017,"nx":28,"ny":28,"refTime":"2024-03-23T09:00:00:Z","depth":0,"parameterNumber":3,"parameterNumberName":"V-component_of_WINDS"},"data":[0,0,0,0,0,0,0,0,0,0,0,0,0,0,0,0,0,0,0,0,0,0,0,0,0,0,0,0,0,0,0,0,0,0,0,0,0,0,0,0,0,0,0,0,0,0,0,0,0,0,0,0,0,0,0,0,0,0,3.3028,3.3029,0,3.314,3.3141,3.3143,3.3232,3.3233,3.3234,3.3235,3.3347,3.3349,3.3351,0,0,0,0,0,0,0,0,0,0,0,0,0,3.2888,3.289,3.3028,3.3029,3.3031,3.314,3.3141,3.3143,3.3232,3.3233,3.3234,3.3235,3.3346,3.3348,3.3351,0,0,0,0,0,0,0,0,0,0,0,0,0,3.2969,3.2891,3.3028,3.3088,3.3095,3.314,3.3141,3.3143,3.3232,3.3233,3.3235,3.3236,3.3345,3.3348,3.3351,3.3343,0,0,3.3361,3.3362,0,0,0,0,0,0,0,0,3.2965,3.2974,3.3078,3.3084,3.3092,3.3174,3.3133,3.321,3.3232,3.318,3.3235,3.3237,3.3288,3.3296,3.3314,3.3349,3.3353,3.3361,3.3363,3.3365,3.3365,0,0,0,0,0,0,0,3.2959,3.297,3.3072,3.3079,3.3088,3.3109,3.3122,3.3148,3.3225,3.3184,3.3191,3.3203,3.3292,3.331,3.3317,3.3355,3.3361,3.3364,3.3366,3.3367,3.3391,3.339,0,0,0,0,0,0,3.2944,3.2965,3.3069,3.3076,3.303,3.3111,3.3125,3.3146,3.3225,3.3238,3.3202,3.3207,3.3304,3.3313,3.3321,3.3319,3.3364,3.3367,3.3369,3.3392,3.3391,3.3389,0,0,0,0,0,0,3.2941,3.2953,3.3064,3.3022,3.3038,3.3112,3.3134,3.3147,3.3166,3.3238,3.3252,3.3207,3.3306,3.3317,3.3338,3.3324,3.3369,3.3372,3.3394,3.3392,3.339,3.3313,0,0,0,0,0,0,3.2937,3.2951,3.2949,3.3021,3.304,3.308,3.3133,3.3149,3.3172,3.318,3.3247,3.3259,3.3308,3.3333,3.3341,3.3329,3.3374,3.3396,3.3393,3.3391,3.3317,3.3309,3.3302,0,0,0,0,0,3.2931,3.2922,3.2949,3.2961,3.304,3.3079,3.3089,3.3146,3.317,3.3169,3.3216,3.3257,3.3324,3.3334,3.3344,3.3333,3.3397,3.3394,3.3391,3.3321,3.3311,3.3302,0,0,0,0,0,0,3.2845,3.2933,3.2963,3.2977,3.302,3.3094,3.3094,3.3133,3.3169,3.3174,3.3242,3.3257,3.3271,3.3304,3.3314,3.3331,3.3366,3.3365,3.3309,3.33,3.3292,3.3284,3.3377,0,0,0,0,0,3.2828,3.2853,3.2928,3.2933,3.2953,3.3019,3.3039,3.3079,3.3125,3.3144,3.3191,3.3234,3.3265,3.3284,3.3316,3.3322,3.3338,3.3319,3.3311,3.3305,3.3304,3.3311,3.3303,3.338,3.338,3.338,0,0,3.2793,3.2844,3.2855,3.2917,3.2955,3.2979,3.3034,3.3057,3.3076,3.3147,3.3171,3.3207,3.3259,3.3273,3.3282,3.3301,3.3286,3.3301,3.3295,3.3298,3.3307,3.33,3.3293,3.3378,3.3379,3.3379,0,0,3.2741,3.2782,3.2792,3.2829,3.2886,3.293,3.2932,3.3,3.3027,3.3052,3.3107,3.3129,3.318,3.3216,3.3241,3.3203,3.3243,3.3211,3.3171,3.3177,3.3171,3.3166,3.3154,3.3148,3.3209,3.3209,3.3209,0,3.269,3.273,3.2791,3.2812,3.2838,3.2904,3.2914,3.2947,3.3011,3.3027,3.3048,3.3115,3.3154,3.3178,3.3169,3.3186,3.3191,3.3204,3.3167,3.3162,3.3158,3.3148,3.3143,3.3205,3.3205,3.3206,3.3206,0,3.2665,3.2691,3.2692,3.2754,3.278,3.2795,3.2858,3.2876,3.2914,3.2956,3.2981,3.3031,3.3075,3.3083,3.3119,3.3112,3.3123,3.3154,3.3191,3.3146,3.3137,3.3134,3.3199,3.3201,3.3202,3.3203,0,0,3.2564,3.2659,3.2659,3.2688,3.2756,3.2777,3.2795,3.284,3.2855,3.2896,3.2913,3.2955,3.2985,3.3013,3.3054,3.3059,3.3028,3.309,3.3092,3.3078,3.3024,3.3002,3.2996,3.3054,3.3053,3.3053,3.3021,0,3.2524,3.2562,3.2618,3.2636,3.2662,3.2725,3.2741,3.2784,3.2823,3.285,3.2893,3.2923,3.2959,3.2976,3.2984,3.303,3.3018,3.3032,3.3071,3.3071,3.3058,3.2991,3.2967,3.2935,3.3017,3.3017,3.3016,0,3.2484,3.2524,3.2545,3.2612,3.2625,3.2638,3.2684,3.2709,3.2759,3.2787,3.2818,3.2863,3.2885,3.2917,3.2948,3.2957,3.2975,3.3,3.3,3.3007,3.3042,3.2998,3.2926,3.2921,3.3011,3.3012,3.3012,0,3.241,3.2469,3.249,3.2513,3.2591,3.2599,3.2631,3.2682,3.2706,3.2745,3.2761,3.2801,3.2824,3.2854,3.2908,3.2926,3.2934,3.297,3.2959,3.2957,3.2959,3.2958,3.289,3.2967,3.2967,3.2967,3.2967,0,3.2362,3.2373,3.2458,3.2471,3.2486,3.2549,3.2561,3.2599,3.2644,3.2666,3.2721,3.274,3.281,3.2836,3.2878,3.2899,3.2908,3.2931,3.2943,3.2928,3.2925,3.2942,3.2946,3.2966,3.2966,3.2967,3.2967,0,3.2283,3.234,3.2368,3.2439,3.2458,3.2465,3.2526,3.2541,3.2583,3.261,3.2619,3.2685,3.272,3.2777,3.2827,3.2855,3.2868,3.2886,3.2852,3.2859,3.2845,3.2846,3.2786,3.2782,3.286,3.2859,3.2858,0,3.225,3.226,3.2333,3.2352,3.2383,3.2412,3.2437,3.2499,3.2522,3.258,3.2587,3.2626,3.2661,3.2712,3.2765,3.2803,3.2824,3.28,3.283,3.2815,3.2826,3.2825,3.2827,3.2794,3.2793,3.2792,3.2791,0,3.2185,3.2213,3.2247,3.229,3.2318,3.2355,3.2395,3.2407,3.2478,3.2501,3.2537,3.2564,3.2616,3.2654,3.27,3.2733,3.2774,3.2781,3.2781,3.2766,3.2747,3.2759,3.2835,3.2783,3.2783,3.2784,3.2785,3.2785,3.213,3.2142,3.2196,3.2232,3.2268,3.2304,3.2322,3.2367,3.2399,3.2447,3.2481,3.2515,3.2565,3.2631,3.2662,3.2689,3.2707,3.2706,3.2707,3.2706,3.2701,3.2741,3.2697,3.2698,3.2698,3.2698,3.2699,0,3.2069,3.2107,3.2139,3.2194,3.2222,3.2258,3.2304,3.2325,3.2355,3.2398,3.2431,3.2473,3.251,3.2565,3.2606,3.2617,3.2637,3.2626,3.2627,3.2634,3.2681,3.2678,3.261,3.261,3.261,3.261,3.261,3.261,3.2042,3.2066,3.2099,3.2142,3.2179,3.2214,3.2237,3.2271,3.2306,3.235,3.2382,3.2418,3.2466,3.2511,3.2546,3.2562,3.2575,3.2558,3.2579,3.2622,3.2631,3.2639,3.2636,3.256,3.256,3.2531,3.253,3.253]}]]